Location: Lalanga
(4.5882°N, 32.9072°E)
Time: 06:17:33
(UTC+00:00)

MOS 1 - Pass Details

Date: 24 January 2020
Orbit: 878 x 892 km, 99.2° (Epoch: 17 February)

Event Time Altitude Azimuth Distance (km) Brightness Sun altitude
Rises 17:52:26 0° 169° (SSE) 3,495 7.5 -27.9°
Reaches altitude 10° 17:54:50 10° 169° (S) 2,555 6.8 -28.5°
Enters shadow 18:00:07 76° 197° (SSW) 917 4.3 -29.7°
